{"data":{"norad_id":61922,"intl_designator":"2024-207L","name":"STARLINK-32579","alt_names":[],"object_type":"PAYLOAD","status":"ACTIVE","operator":null,"country":"US","launch_date":"2024-11-11","launch_site_code":"AFETR","launch_vehicle":null,"mission":null,"orbit_class":"UNKNOWN","rcs_meters":null,"size_class":null,"mass_kg":null,"dimensions":null,"purposes":["comms"],"wikipedia_slug":null,"has_3d_model":false,"image_url":null,"decayed_at":null,"tle_current":{"epoch":"2026-05-24T21:23:52.187136Z","epoch_age_seconds":81503,"freshness":"FRESH","line1":"1 61922U 24207L   26144.89157624  .00008607  00000+0  32189-3 0  9990","line2":"2 61922  42.9969 215.0699 0000662 289.9527  70.1253 15.27583301 86332","mean_motion":15.27583301,"eccentricity":6.62e-5,"inclination_deg":42.9969,"raan_deg":215.0699,"arg_perigee_deg":289.9527,"mean_anomaly_deg":70.1253,"bstar":0.00032189,"rev_number":8633,"period_min":94.266545009842,"perigee_km":482.58500181071,"apogee_km":483.49342154114,"semimajor_km":6861.1762116759,"source":"CELESTRAK","updated_at":"2026-05-25T13:38:19.482435Z"}}}